| time (UTC) | temp F | wind direction | speed knots | gust knots | rain 1hr in | rain 24hr in | rain mn in | humidity % | barometer mb |
| 20260506051217 | 64 | 303 | 1.7 | 6.1 | 0.00 | 0.00 | 0.00 | 74 | 1012.5 |
| 20260506050717 | 64 | 23 | 1.7 | 5.2 | 0.00 | 0.00 | 0.00 | 73 | 1012.4 |
| 20260506050217 | 64 | 12 | 1.7 | 6.1 | 0.00 | 0.00 | 0.00 | 74 | 1012.4 |
| 20260506044716 | 64 | 25 | 1.7 | 5.2 | 0.00 | 0.00 | 0.00 | 72 | 1011.9 |
| 20260506044216 | 64 | 30 | 0.9 | 5.2 | 0.00 | 0.00 | 0.00 | 72 | 1012.0 |
| 20260506043716 | 64 | 0 | 1.7 | 6.1 | 0.00 | 0.00 | 0.00 | 71 | 1012.1 |
| 20260506043213 | 64 | 25 | 1.7 | 6.1 | 0.00 | 0.00 | 0.00 | 71 | 1012.3 |
| 20260506042713 | 64 | 302 | 0.9 | 4.3 | 0.00 | 0.00 | 0.00 | 70 | 1012.6 |
| 20260506042213 | 65 | 342 | 0.9 | 5.2 | 0.00 | 0.00 | 0.00 | 70 | 1012.4 |
| 20260506041711 | 65 | 8 | 1.7 | 6.1 | 0.00 | 0.00 | 0.00 | 69 | 1012.4 |
| 20260506041212 | 65 | 17 | 1.7 | 6.1 | 0.00 | 0.00 | 0.00 | 69 | 1012.5 |
| 20260506040712 | 65 | 32 | 1.7 | 5.2 | 0.00 | 0.00 | 0.00 | 70 | 1012.3 |
| 20260506040212 | 65 | 11 | 2.6 | 5.2 | 0.00 | 0.00 | 0.00 | 70 | 1012.2 |
| 20260506035712 | 65 | 35 | 2.6 | 5.2 | 0.00 | 0.00 | 0.00 | 70 | 1012.3 |
| 20260506035211 | 65 | 37 | 2.6 | 5.2 | 0.00 | 0.00 | 0.00 | 68 | 1012.3 |
| 20260506034712 | 65 | 36 | 2.6 | 5.2 | 0.00 | 0.00 | 0.00 | 69 | 1012.4 |
| 20260506034241 | 66 | 36 | 2.6 | 5.2 | 0.00 | 0.00 | 0.00 | 68 | 1012.2 |
| 20260506034231 | 65 | 33 | 2.6 | 5.2 | 0.00 | 0.00 | 0.00 | 67 | 1012.2 |
| 20260506033454 | 66 | 38 | 1.7 | 5.2 | 0.00 | 0.00 | 0.00 | 67 | 1012.2 |
| 20260506032709 | 66 | 42 | 1.7 | 4.3 | 0.00 | 0.00 | 0.00 | 69 | 1012.4 |
| 20260506032209 | 66 | 33 | 1.7 | 4.3 | 0.00 | 0.00 | 0.00 | 65 | 1012.5 |
| 20260506031953 | 66 | 15 | 1.7 | 3.5 | 0.00 | 0.00 | 0.00 | 64 | 1012.4 |
| 20260506031209 | 67 | 36 | 1.7 | 3.5 | 0.00 | 0.00 | 0.00 | 64 | 1012.3 |
| 20260506030708 | 67 | 22 | 1.7 | 3.5 | 0.00 | 0.00 | 0.00 | 64 | 1012.4 |
| 20260506030209 | 67 | 35 | 1.7 | 3.5 | 0.00 | 0.00 | 0.00 | 64 | 1012.3 |
| 20260506025710 | 67 | 23 | 1.7 | 2.6 | 0.00 | 0.00 | 0.00 | 65 | 1012.3 |
| 20260506025209 | 67 | 165 | 1.7 | 2.6 | 0.00 | 0.00 | 0.00 | 63 | 1012.5 |
| 20260506024709 | 67 | 41 | 1.7 | 3.5 | 0.00 | 0.00 | 0.00 | 63 | 1012.6 |
| 20260506024210 | 67 | 30 | 1.7 | 3.5 | 0.00 | 0.00 | 0.00 | 62 | 1012.6 |
| 20260506023707 | 67 | 35 | 1.7 | 3.5 | 0.00 | 0.00 | 0.00 | 62 | 1012.5 |
| 20260506023207 | 67 | 0 | 1.7 | 3.5 | 0.00 | 0.00 | 0.00 | 64 | 1012.5 |
| 20260506022950 | 66 | 36 | 2.6 | 3.5 | 0.00 | 0.00 | 0.00 | 61 | 1012.6 |
| 20260506022207 | 66 | 349 | 2.6 | 3.5 | 0.00 | 0.00 | 0.00 | 65 | 1012.4 |
| 20260506021707 | 66 | 35 | 2.6 | 3.5 | 0.00 | 0.00 | 0.00 | 63 | 1012.3 |
| 20260506021549 | 66 | 41 | 2.6 | 4.3 | 0.00 | 0.00 | 0.00 | 63 | 1012.3 |
| 20260506021249 | 66 | 38 | 2.6 | 4.3 | 0.00 | 0.00 | 0.00 | 63 | 1012.3 |
| 20260506015706 | 66 | 28 | 2.6 | 4.3 | 0.00 | 0.00 | 0.00 | 65 | 1012.0 |
| 20260506015208 | 67 | 51 | 1.7 | 3.5 | 0.00 | 0.00 | 0.00 | 68 | 1012.0 |
| 20260506014707 | 67 | 39 | 2.6 | 3.5 | 0.00 | 0.00 | 0.00 | 64 | 1012.2 |
| 20260506014207 | 67 | 30 | 2.6 | 3.5 | 0.00 | 0.00 | 0.00 | 63 | 1012.3 |
| 20260506013707 | 67 | 32 | 2.6 | 3.5 | 0.00 | 0.00 | 0.00 | 64 | 1012.2 |
| 20260506013206 | 67 | 24 | 2.6 | 4.3 | 0.00 | 0.00 | 0.00 | 65 | 1012.2 |
| 20260506012948 | 67 | 34 | 2.6 | 4.3 | 0.00 | 0.00 | 0.00 | 66 | 1012.2 |
| 20260506012205 | 67 | 35 | 2.6 | 3.5 | 0.00 | 0.00 | 0.00 | 65 | 1012.1 |
| 20260506011705 | 67 | 35 | 2.6 | 3.5 | 0.00 | 0.00 | 0.00 | 65 | 1012.1 |
| 20260506011206 | 67 | 31 | 2.6 | 4.3 | 0.00 | 0.00 | 0.00 | 63 | 1012.1 |
| 20260506010738 | 67 | 32 | 3.5 | 4.3 | 0.00 | 0.00 | 0.00 | 64 | 1011.9 |
| 20260506010727 | 67 | 37 | 3.5 | 4.3 | 0.00 | 0.00 | 0.00 | 63 | 1012.1 |
| 20260506005728 | 68 | 41 | 3.5 | 4.3 | 0.00 | 0.00 | 0.00 | 65 | 1011.9 |
| 20260506004948 | 69 | 33 | 1.7 | 3.5 | 0.00 | 0.00 | 0.00 | 61 | 1012.1 |
| 20260506004207 | 69 | 33 | 1.7 | 2.6 | 0.00 | 0.00 | 0.00 | 60 | 1012.1 |
| 20260506003704 | 70 | 26 | 0.9 | 2.6 | 0.00 | 0.00 | 0.00 | 59 | 1012.2 |
| 20260506003203 | 70 | 359 | 0.9 | 1.7 | 0.00 | 0.00 | 0.00 | 61 | 1012.3 |
| 20260506002702 | 71 | 36 | 0.9 | 1.7 | 0.00 | 0.00 | 0.00 | 59 | 1012.3 |
| 20260506002203 | 71 | 10 | 0.0 | 1.7 | 0.00 | 0.00 | 0.00 | 56 | 1012.4 |
| 20260506001702 | 72 | 352 | 0.0 | 1.7 | 0.00 | 0.00 | 0.00 | 55 | 1012.4 |
| 20260506001204 | 72 | 7 | 0.0 | 0.9 | 0.00 | 0.00 | 0.00 | 54 | 1012.4 |
| 20260506000704 | 72 | 354 | 0.0 | 0.9 | 0.00 | 0.00 | 0.00 | 54 | 1012.4 |
| 20260506000205 | 73 | 0 | 0.0 | 0.9 | 0.00 | 0.00 | 0.00 | 53 | 1012.3 |
| 20260505235702 | 73 | 0 | 0.0 | 0.9 | 0.00 | 0.00 | 0.00 | 53 | 1012.3 |
| 20260505235203 | 73 | 303 | 0.0 | 0.9 | 0.00 | 0.00 | 0.00 | 52 | 1012.3 |
| 20260505234702 | 74 | 0 | 0.0 | 0.9 | 0.00 | 0.00 | 0.00 | 52 | 1012.2 |
| 20260505234202 | 74 | 0 | 0.0 | 1.7 | 0.00 | 0.00 | 0.00 | 52 | 1012.2 |
| 20260505233702 | 74 | 0 | 0.0 | 1.7 | 0.00 | 0.00 | 0.00 | 51 | 1012.3 |
| 20260505233203 | 74 | 10 | 0.0 | 1.7 | 0.00 | 0.00 | 0.00 | 50 | 1012.5 |
| 20260505232703 | 74 | 327 | 0.0 | 1.7 | 0.00 | 0.00 | 0.00 | 51 | 1012.5 |
| 20260505232205 | 74 | 0 | 0.0 | 1.7 | 0.00 | 0.00 | 0.00 | 51 | 1012.4 |
| 20260505231702 | 75 | 0 | 0.0 | 1.7 | 0.00 | 0.00 | 0.00 | 51 | 1012.4 |
| 20260505231202 | 75 | 0 | 0.0 | 0.9 | 0.00 | 0.00 | 0.00 | 50 | 1012.5 |
| 20260505230702 | 75 | 0 | 0.0 | 2.6 | 0.00 | 0.00 | 0.00 | 49 | 1012.4 |
| 20260505230202 | 75 | 0 | 0.0 | 2.6 | 0.00 | 0.00 | 0.00 | 49 | 1012.3 |
| 20260505225944 | 75 | 332 | 0.0 | 2.6 | 0.00 | 0.00 | 0.00 | 50 | 1012.1 |
| 20260505225202 | 75 | 0 | 0.0 | 1.7 | 0.00 | 0.00 | 0.00 | 49 | 1012.1 |
| 20260505224703 | 76 | 288 | 0.0 | 1.7 | 0.00 | 0.00 | 0.00 | 50 | 1012.1 |
| 20260505224202 | 76 | 90 | 0.0 | 1.7 | 0.00 | 0.00 | 0.00 | 49 | 1011.9 |
| 20260505223703 | 76 | 0 | 0.0 | 1.7 | 0.00 | 0.00 | 0.00 | 48 | 1011.9 |
| 20260505223202 | 76 | 0 | 0.0 | 1.7 | 0.00 | 0.00 | 0.00 | 48 | 1012.0 |
| 20260505222701 | 76 | 0 | 0.0 | 2.6 | 0.00 | 0.00 | 0.00 | 47 | 1012.1 |
| 20260505222201 | 76 | 0 | 0.0 | 2.6 | 0.00 | 0.00 | 0.00 | 47 | 1012.1 |
| 20260505221700 | 76 | 0 | 0.0 | 1.7 | 0.00 | 0.00 | 0.00 | 48 | 1012.0 |
| 20260505221202 | 76 | 21 | 0.0 | 1.7 | 0.00 | 0.00 | 0.00 | 48 | 1012.1 |
| 20260505220700 | 77 | 0 | 0.0 | 1.7 | 0.00 | 0.00 | 0.00 | 49 | 1012.0 |
| 20260505220201 | 77 | 0 | 0.0 | 1.7 | 0.00 | 0.00 | 0.00 | 48 | 1012.1 |
| 20260505215701 | 76 | 0 | 0.0 | 1.7 | 0.00 | 0.00 | 0.00 | 47 | 1011.9 |
| 20260505215202 | 76 | 48 | 0.0 | 1.7 | 0.00 | 0.00 | 0.00 | 47 | 1011.8 |
| 20260505214944 | 77 | 0 | 0.9 | 3.5 | 0.00 | 0.00 | 0.00 | 46 | 1011.9 |
| 20260505214201 | 78 | 0 | 0.9 | 3.5 | 0.00 | 0.00 | 0.00 | 46 | 1011.9 |
| 20260505213701 | 79 | 81 | 0.9 | 1.7 | 0.00 | 0.00 | 0.00 | 46 | 1011.8 |
| 20260505213201 | 79 | 134 | 0.0 | 2.6 | 0.00 | 0.00 | 0.00 | 46 | 1012.0 |
| 20260505212703 | 79 | 300 | 0.9 | 4.3 | 0.00 | 0.00 | 0.00 | 46 | 1012.0 |
| 20260505212202 | 79 | 0 | 0.9 | 4.3 | 0.00 | 0.00 | 0.00 | 46 | 1012.1 |
| 20260505211701 | 79 | 38 | 0.9 | 1.7 | 0.00 | 0.00 | 0.00 | 46 | 1012.1 |
| 20260505211201 | 79 | 333 | 0.0 | 1.7 | 0.00 | 0.00 | 0.00 | 47 | 1012.2 |
| 20260505210944 | 79 | 0 | 0.0 | 1.7 | 0.00 | 0.00 | 0.00 | 46 | 1012.2 |
| 20260505210202 | 79 | 0 | 0.0 | 1.7 | 0.00 | 0.00 | 0.00 | 46 | 1012.2 |
| 20260505205701 | 79 | 25 | 0.9 | 2.6 | 0.00 | 0.00 | 0.00 | 46 | 1012.3 |
| 20260505205202 | 80 | 83 | 0.0 | 2.6 | 0.00 | 0.00 | 0.00 | 45 | 1012.2 |
| 20260505204701 | 79 | 0 | 0.0 | 3.5 | 0.00 | 0.00 | 0.00 | 44 | 1012.2 |
| 20260505204201 | 79 | 0 | 0.9 | 4.3 | 0.00 | 0.00 | 0.00 | 46 | 1012.4 |
| 20260505203701 | 80 | 217 | 0.9 | 4.3 | 0.00 | 0.00 | 0.00 | 45 | 1012.6 |
| 20260505203447 | 80 | 0 | 0.9 | 2.6 | 0.00 | 0.00 | 0.00 | 46 | 1012.6 |
| 20260505202945 | 80 | 342 | 0.0 | 2.6 | 0.00 | 0.00 | 0.00 | 46 | 1012.6 |
| 20260505202202 | 79 | 0 | 0.9 | 3.5 | 0.00 | 0.00 | 0.00 | 47 | 1012.6 |
| 20260505201701 | 79 | 18 | 0.9 | 4.3 | 0.00 | 0.00 | 0.00 | 48 | 1012.8 |
| 20260505201200 | 79 | 0 | 0.0 | 4.3 | 0.00 | 0.00 | 0.00 | 46 | 1012.8 |
| 20260505200700 | 78 | 0 | 0.9 | 3.5 | 0.00 | 0.00 | 0.00 | 47 | 1012.8 |
| 20260505200203 | 78 | 122 | 0.9 | 3.5 | 0.00 | 0.00 | 0.00 | 53 | 1012.9 |
| 20260505195700 | 78 | 61 | 0.0 | 3.5 | 0.00 | 0.00 | 0.00 | 48 | 1012.9 |
| 20260505195443 | 77 | 0 | 0.0 | 1.7 | 0.00 | 0.00 | 0.00 | 52 | 1012.9 |
| 20260505194944 | 76 | 0 | 0.9 | 3.5 | 0.00 | 0.00 | 0.00 | 50 | 1013.1 |
| 20260505194202 | 76 | 0 | 0.9 | 3.5 | 0.00 | 0.00 | 0.00 | 49 | 1013.2 |
| 20260505193700 | 76 | 51 | 0.9 | 2.6 | 0.00 | 0.00 | 0.00 | 49 | 1013.2 |
| 20260505193202 | 75 | 0 | 0.9 | 3.5 | 0.00 | 0.00 | 0.00 | 50 | 1013.3 |
| 20260505192702 | 75 | 0 | 0.9 | 3.5 | 0.00 | 0.00 | 0.00 | 51 | 1013.4 |
| 20260505192446 | 76 | 51 | 0.9 | 3.5 | 0.00 | 0.00 | 0.00 | 50 | 1013.5 |
| 20260505191700 | 76 | 201 | 0.9 | 2.6 | 0.00 | 0.00 | 0.00 | 51 | 1013.4 |
| 20260505191201 | 76 | 74 | 0.9 | 2.6 | 0.00 | 0.00 | 0.00 | 51 | 1013.3 |
| 20260505190945 | 76 | 68 | 0.9 | 3.5 | 0.00 | 0.00 | 0.00 | 51 | 1013.4 |
| 20260505190224 | 76 | 78 | 0.9 | 3.5 | 0.00 | 0.00 | 0.00 | 50 | 1013.4 |
| 20260505185203 | 76 | 53 | 0.9 | 3.5 | 0.00 | 0.00 | 0.00 | 50 | 1013.6 |
| 20260505184702 | 76 | 280 | 0.9 | 3.5 | 0.00 | 0.00 | 0.00 | 50 | 1013.8 |
| 20260505184202 | 75 | 0 | 0.9 | 3.5 | 0.00 | 0.00 | 0.00 | 50 | 1013.8 |
| 20260505183701 | 75 | 220 | 0.9 | 4.3 | 0.00 | 0.00 | 0.00 | 50 | 1013.9 |
| 20260505183443 | 76 | 66 | 0.9 | 4.3 | 0.00 | 0.00 | 0.00 | 51 | 1013.8 |
| 20260505182946 | 76 | 131 | 0.9 | 4.3 | 0.00 | 0.00 | 0.00 | 51 | 1013.9 |
| 20260505182443 | 76 | 84 | 0.0 | 1.7 | 0.00 | 0.00 | 0.00 | 50 | 1014.0 |
| 20260505181702 | 76 | 0 | 0.9 | 3.5 | 0.00 | 0.00 | 0.00 | 51 | 1014.0 |
| 20260505181444 | 76 | 0 | 0.9 | 3.5 | 0.00 | 0.00 | 0.00 | 53 | 1014.1 |
| 20260505180947 | 76 | 13 | 0.9 | 3.5 | 0.00 | 0.00 | 0.00 | 51 | 1014.1 |
| 20260505180204 | 76 | 0 | 0.9 | 3.5 | 0.00 | 0.00 | 0.00 | 49 | 1014.3 |
| 20260505175701 | 76 | 105 | 0.9 | 3.5 | 0.00 | 0.00 | 0.00 | 51 | 1014.4 |
| 20260505175203 | 75 | 0 | 0.9 | 4.3 | 0.00 | 0.00 | 0.00 | 51 | 1014.4 |
| 20260505174702 | 74 | 0 | 0.9 | 4.3 | 0.00 | 0.00 | 0.00 | 50 | 1014.5 |
| 20260505174201 | 74 | 172 | 0.9 | 3.5 | 0.00 | 0.00 | 0.00 | 53 | 1014.5 |
| 20260505173704 | 75 | 0 | 0.9 | 3.5 | 0.00 | 0.00 | 0.00 | 52 | 1014.7 |
| 20260505173201 | 76 | 312 | 0.9 | 2.6 | 0.00 | 0.00 | 0.00 | 54 | 1014.9 |
| 20260505172702 | 75 | 0 | 0.9 | 4.3 | 0.00 | 0.00 | 0.00 | 52 | 1014.8 |
| 20260505172201 | 75 | 349 | 0.9 | 4.3 | 0.00 | 0.00 | 0.00 | 53 | 1014.7 |
| 20260505171701 | 75 | 0 | 0.9 | 2.6 | 0.00 | 0.00 | 0.00 | 55 | 1014.8 |
| 20260505171201 | 74 | 267 | 0.9 | 4.3 | 0.00 | 0.00 | 0.00 | 58 | 1014.8 |
| 20260505170945 | 75 | 86 | 0.9 | 4.3 | 0.00 | 0.00 | 0.00 | 55 | 1014.8 |
| 20260505170201 | 75 | 0 | 0.9 | 3.5 | 0.00 | 0.00 | 0.00 | 53 | 1014.9 |
| 20260505165701 | 75 | 0 | 0.9 | 3.5 | 0.00 | 0.00 | 0.00 | 52 | 1014.9 |
| 20260505165201 | 74 | 0 | 0.9 | 5.2 | 0.00 | 0.00 | 0.00 | 53 | 1014.8 |
| 20260505164701 | 74 | 0 | 0.9 | 5.2 | 0.00 | 0.00 | 0.00 | 56 | 1014.9 |
| 20260505164201 | 74 | 67 | 0.9 | 3.5 | 0.00 | 0.00 | 0.00 | 55 | 1014.9 |
| 20260505163701 | 74 | 0 | 0.9 | 3.5 | 0.00 | 0.00 | 0.00 | 54 | 1014.9 |
| 20260505163201 | 74 | 0 | 0.9 | 3.5 | 0.00 | 0.00 | 0.00 | 54 | 1014.8 |
| 20260505162701 | 73 | 0 | 0.9 | 3.5 | 0.00 | 0.00 | 0.00 | 55 | 1014.8 |
| 20260505162201 | 73 | 263 | 0.9 | 3.5 | 0.00 | 0.00 | 0.00 | 55 | 1014.9 |
| 20260505161701 | 73 | 63 | 0.9 | 3.5 | 0.00 | 0.00 | 0.00 | 56 | 1014.9 |
| 20260505161202 | 73 | 99 | 0.9 | 3.5 | 0.00 | 0.00 | 0.00 | 56 | 1014.9 |
| 20260505160701 | 73 | 358 | 0.9 | 3.5 | 0.00 | 0.00 | 0.00 | 54 | 1014.9 |
| 20260505160202 | 73 | 101 | 0.9 | 3.5 | 0.00 | 0.00 | 0.00 | 53 | 1015.0 |
| 20260505153159 | 72 | 187 | 0.9 | 5.2 | 0.00 | 0.00 | 0.00 | 53 | 1015.0 |
| 20260505152659 | 72 | 80 | 0.9 | 5.2 | 0.00 | 0.00 | 0.00 | 53 | 1015.2 |
| 20260505152200 | 72 | 286 | 0.9 | 5.2 | 0.00 | 0.00 | 0.00 | 56 | 1015.2 |
| 20260505151656 | 72 | 148 | 0.9 | 3.5 | 0.00 | 0.00 | 0.00 | 56 | 1015.1 |
| 20260505151158 | 71 | 77 | 0.9 | 3.5 | 0.00 | 0.00 | 0.00 | 58 | 1015.1 |
| 20260505150658 | 71 | 62 | 0.9 | 3.5 | 0.00 | 0.00 | 0.00 | 58 | 1015.0 |
| 20260505150157 | 70 | 0 | 0.9 | 2.6 | 0.00 | 0.00 | 0.00 | 61 | 1015.0 |
| 20260505140652 | 63 | 22 | 0.9 | 5.2 | 0.00 | 0.00 | 0.00 | 79 | 1014.8 |
| 20260505140435 | 62 | 298 | 0.9 | 5.2 | 0.00 | 0.00 | 0.00 | 80 | 1014.8 |
| 20260505130150 | 51 | 10 | 0.9 | 1.7 | 0.00 | 0.00 | 0.00 | 99 | 1014.6 |
| 20260505124650 | 49 | 344 | 0.9 | 2.6 | 0.00 | 0.00 | 0.00 | 100 | 1014.5 |
| 20260505124148 | 49 | 25 | 0.9 | 1.7 | 0.00 | 0.00 | 0.00 | 100 | 1014.5 |
| 20260505123647 | 49 | 26 | 1.7 | 1.7 | 0.00 | 0.00 | 0.00 | 100 | 1014.4 |
| 20260505123144 | 48 | 43 | 0.9 | 1.7 | 0.00 | 0.00 | 0.00 | 100 | 1014.3 |
| 20260505122644 | 48 | 6 | 1.7 | 1.7 | 0.00 | 0.00 | 0.00 | 100 | 1014.3 |
| 20260505122428 | 47 | 349 | 1.7 | 1.7 | 0.00 | 0.00 | 0.00 | 100 | 1014.1 |
| 20260505121645 | 47 | 31 | 1.7 | 1.7 | 0.00 | 0.00 | 0.00 | 99 | 1014.1 |
| 20260505121144 | 47 | 24 | 1.7 | 1.7 | 0.00 | 0.00 | 0.00 | 99 | 1014.1 |
| 20260505120930 | 46 | 351 | 1.7 | 1.7 | 0.00 | 0.00 | 0.00 | 99 | 1014.1 |
| 20260505120145 | 46 | 34 | 0.9 | 1.7 | 0.00 | 0.00 | 0.00 | 99 | 1014.1 |
| 20260505115646 | 46 | 2 | 0.9 | 1.7 | 0.00 | 0.00 | 0.00 | 99 | 1014.1 |
| 20260505115145 | 46 | 32 | 0.9 | 1.7 | 0.00 | 0.00 | 0.00 | 99 | 1014.2 |
| 20260505114645 | 45 | 211 | 0.9 | 1.7 | 0.00 | 0.00 | 0.00 | 99 | 1014.1 |
| 20260505114146 | 45 | 12 | 0.9 | 1.7 | 0.00 | 0.00 | 0.00 | 99 | 1014.0 |
| 20260505113645 | 45 | 47 | 0.9 | 1.7 | 0.00 | 0.00 | 0.00 | 99 | 1013.8 |
| 20260505113143 | 45 | 33 | 0.9 | 1.7 | 0.00 | 0.00 | 0.00 | 99 | 1013.5 |
| 20260505112643 | 44 | 32 | 0.9 | 1.7 | 0.00 | 0.00 | 0.00 | 99 | 1013.4 |
| 20260505112142 | 44 | 45 | 0.9 | 1.7 | 0.00 | 0.00 | 0.00 | 99 | 1013.5 |
| 20260505111642 | 44 | 47 | 0.9 | 1.7 | 0.00 | 0.00 | 0.00 | 99 | 1013.4 |
| 20260505111142 | 44 | 219 | 0.9 | 1.7 | 0.00 | 0.00 | 0.00 | 99 | 1013.5 |
| 20260505110644 | 44 | 230 | 0.9 | 1.7 | 0.00 | 0.00 | 0.00 | 99 | 1013.5 |
| 20260505110143 | 44 | 50 | 0.9 | 1.7 | 0.00 | 0.00 | 0.00 | 99 | 1013.5 |
| 20260505102141 | 45 | 52 | 0.9 | 1.7 | 0.00 | 0.00 | 0.00 | 98 | 1013.4 |
| 20260505101641 | 45 | 40 | 0.9 | 1.7 | 0.00 | 0.00 | 0.00 | 99 | 1013.3 |
| 20260505101142 | 45 | 36 | 0.9 | 1.7 | 0.00 | 0.00 | 0.00 | 99 | 1013.4 |
| 20260505100643 | 45 | 229 | 0.9 | 1.7 | 0.00 | 0.00 | 0.00 | 99 | 1013.5 |
| 20260505100143 | 45 | 43 | 0.9 | 1.7 | 0.00 | 0.00 | 0.00 | 99 | 1013.5 |
| 20260505095645 | 45 | 71 | 0.9 | 1.7 | 0.00 | 0.00 | 0.00 | 98 | 1013.6 |
| 20260505095143 | 45 | 37 | 0.9 | 1.7 | 0.00 | 0.00 | 0.00 | 98 | 1013.6 |
| 20260505094643 | 45 | 35 | 0.9 | 1.7 | 0.00 | 0.00 | 0.00 | 98 | 1013.6 |
| 20260505094139 | 45 | 0 | 0.9 | 1.7 | 0.00 | 0.00 | 0.00 | 98 | 1013.5 |
| 20260505093714 | 45 | 24 | 0.9 | 1.7 | 0.00 | 0.00 | 0.00 | 98 | 1013.4 |
| 20260505093701 | 45 | 220 | 0.9 | 1.7 | 0.00 | 0.00 | 0.00 | 98 | 1013.4 |
| 20260505092638 | 45 | 43 | 0.9 | 1.7 | 0.00 | 0.00 | 0.00 | 98 | 1013.3 |
| 20260505092139 | 45 | 240 | 0.9 | 1.7 | 0.00 | 0.00 | 0.00 | 98 | 1013.3 |
| 20260505091640 | 45 | 219 | 0.9 | 1.7 | 0.00 | 0.00 | 0.00 | 98 | 1013.4 |
| 20260505091207 | 45 | 57 | 0.9 | 1.7 | 0.00 | 0.00 | 0.00 | 98 | 1013.5 |
| 20260505091157 | 45 | 37 | 0.9 | 1.7 | 0.00 | 0.00 | 0.00 | 98 | 1013.4 |
| 20260505090138 | 45 | 228 | 0.9 | 1.7 | 0.00 | 0.00 | 0.00 | 98 | 1013.6 |
| 20260505085636 | 46 | 42 | 0.9 | 1.7 | 0.00 | 0.00 | 0.00 | 98 | 1013.6 |
| 20260505085137 | 46 | 15 | 0.9 | 1.7 | 0.00 | 0.00 | 0.00 | 98 | 1013.6 |
| 20260505084637 | 46 | 33 | 0.9 | 1.7 | 0.00 | 0.00 | 0.00 | 98 | 1013.6 |
| 20260505084134 | 46 | 24 | 0.9 | 1.7 | 0.00 | 0.00 | 0.00 | 98 | 1013.8 |
| 20260505083917 | 46 | 27 | 0.9 | 1.7 | 0.00 | 0.00 | 0.00 | 98 | 1013.9 |
| 20260505083135 | 46 | 208 | 0.9 | 1.7 | 0.00 | 0.00 | 0.00 | 98 | 1013.9 |
| 20260505082633 | 46 | 38 | 0.9 | 1.7 | 0.00 | 0.00 | 0.00 | 98 | 1013.8 |
| 20260505082134 | 46 | 0 | 0.9 | 1.7 | 0.00 | 0.00 | 0.00 | 97 | 1013.8 |
| 20260505081630 | 46 | 225 | 0.9 | 1.7 | 0.00 | 0.00 | 0.00 | 97 | 1013.8 |
| 20260505081131 | 46 | 26 | 0.9 | 1.7 | 0.00 | 0.00 | 0.00 | 97 | 1013.8 |
| 20260505080630 | 46 | 224 | 0.9 | 1.7 | 0.00 | 0.00 | 0.00 | 97 | 1013.6 |
| 20260505080130 | 46 | 32 | 0.9 | 1.7 | 0.00 | 0.00 | 0.00 | 97 | 1013.6 |
| 20260505075630 | 47 | 344 | 0.9 | 1.7 | 0.00 | 0.00 | 0.00 | 97 | 1013.6 |
| 20260505075129 | 47 | 217 | 0.9 | 1.7 | 0.00 | 0.00 | 0.00 | 97 | 1013.6 |
| 20260505074912 | 47 | 30 | 0.9 | 1.7 | 0.00 | 0.00 | 0.00 | 97 | 1013.6 |
| 20260505074131 | 47 | 18 | 0.9 | 1.7 | 0.00 | 0.00 | 0.00 | 97 | 1013.6 |
| 20260505073630 | 47 | 24 | 0.9 | 1.7 | 0.00 | 0.00 | 0.00 | 97 | 1013.6 |
| 20260505073130 | 47 | 20 | 0.9 | 1.7 | 0.00 | 0.00 | 0.00 | 97 | 1013.6 |
| 20260505072630 | 47 | 26 | 0.9 | 1.7 | 0.00 | 0.00 | 0.00 | 97 | 1013.6 |
| 20260505072129 | 47 | 10 | 0.9 | 1.7 | 0.00 | 0.00 | 0.00 | 97 | 1013.6 |
| 20260505071628 | 47 | 19 | 0.9 | 1.7 | 0.00 | 0.00 | 0.00 | 97 | 1013.6 |
| 20260505071130 | 47 | 7 | 0.9 | 1.7 | 0.00 | 0.00 | 0.00 | 97 | 1013.6 |
| 20260505070629 | 47 | 0 | 0.9 | 1.7 | 0.00 | 0.00 | 0.00 | 97 | 1013.6 |
| 20260505070130 | 47 | 19 | 0.9 | 1.7 | 0.00 | 0.00 | 0.00 | 97 | 1013.6 |
| 20260505065630 | 48 | 7 | 0.9 | 1.7 | 0.00 | 0.00 | 0.00 | 96 | 1013.6 |
| 20260505065130 | 48 | 350 | 0.9 | 1.7 | 0.00 | 0.00 | 0.00 | 96 | 1013.6 |
| 20260505064629 | 48 | 0 | 0.9 | 1.7 | 0.00 | 0.00 | 0.00 | 96 | 1013.5 |
| 20260505064412 | 48 | 19 | 0.9 | 1.7 | 0.00 | 0.00 | 0.00 | 96 | 1013.6 |
| 20260505063915 | 48 | 342 | 0.9 | 1.7 | 0.00 | 0.00 | 0.00 | 96 | 1013.6 |
| 20260505063132 | 48 | 26 | 0.9 | 1.7 | 0.00 | 0.00 | 0.00 | 96 | 1013.6 |
| 20260505062631 | 48 | 359 | 0.9 | 2.6 | 0.00 | 0.00 | 0.00 | 96 | 1013.8 |
| 20260505062129 | 48 | 8 | 0.9 | 2.6 | 0.00 | 0.00 | 0.00 | 96 | 1013.8 |
| 20260505061914 | 48 | 10 | 0.9 | 1.7 | 0.00 | 0.00 | 0.00 | 96 | 1013.8 |
| 20260505061129 | 48 | 247 | 0.9 | 1.7 | 0.00 | 0.00 | 0.00 | 96 | 1013.8 |
| 20260505060629 | 49 | 31 | 0.9 | 1.7 | 0.00 | 0.00 | 0.00 | 96 | 1013.8 |
| 20260505060130 | 49 | 358 | 0.9 | 1.7 | 0.00 | 0.00 | 0.00 | 95 | 1013.8 |
| 20260505055632 | 49 | 7 | 0.9 | 1.7 | 0.00 | 0.00 | 0.00 | 95 | 1013.8 |
| 20260505055130 | 49 | 4 | 0.9 | 1.7 | 0.00 | 0.00 | 0.00 | 95 | 1013.8 |